Regional Weather Roundup
Issued by NWS

Home | Current Version | Previous Version | Text Only | Print | Product List | Glossary On
Versions: 1 2 3 4 5 6 7 8 9 10 11 12 13 14 15 16 17 18 19 20 21 22 23 24 25 26 27 28 29 30 31 32 33 34 35 36 37 38 39 40 41 42 43 44 45 46 47 48 49 50
000
ASUS43 KBIS 050320
RWRND

NORTH DAKOTA REGIONAL WEATHER ROUNDUP
NATIONAL WEATHER SERVICE BISMARCK ND
900 PM CST WED MAR 04 2015

NOTE: "FAIR" INDICATES FEW OR NO CLOUDS BELOW 12,000 FEET WITH NO
SIGNIFICANT WEATHER AND/OR OBSTRUCTIONS TO VISIBILITY.


NDZ001>003-009>011-017-050400-
NORTHWEST NORTH DAKOTA

CITY           SKY/WX    TMP DP  RH WIND       PRES   REMARKS
WILLISTON        N/A    N/A N/A N/A MISG      30.23F
MINOT          PTCLDY    -5 -14  65 SW6       30.29F WCI -18
MINOT AFB      PTCLDY   -12 -17  75 SW2       30.29F
$$

NDZ018>021-031>035-040>046-050400-
SOUTHWEST NORTH DAKOTA

CITY           SKY/WX    TMP DP  RH WIND       PRES   REMARKS
BISMARCK       CLEAR     -4 -10  75 E5        30.34F WCI -15
DICKINSON      CLEAR     -1 -10  65 S6        30.18F WCI -13
GARRISON         N/A     -7 -14  71 CALM      30.28F
HETTINGER ARPT CLEAR     -1 -11  62 SE5       30.22S WCI -11
$$

NDZ004>008-012>016-024-026-027-054-050400-
NORTHEAST NORTH DAKOTA

CITY           SKY/WX    TMP DP  RH WIND       PRES   REMARKS
GRAND FORKS    CLEAR     -9 -15  75 W6        30.39R WCI -22
GRND FRKS AFB  CLEAR     -8 -15  69 NW6       30.38R WCI -21
DEVILS LAKE    CLEAR     -8 -17  65 W7        30.32S WCI -22
$$

NDZ022-023-025-028>030-036>039-047>053-050400-
SOUTHEAST NORTH DAKOTA

CITY           SKY/WX    TMP DP  RH WIND       PRES   REMARKS
FARGO          FAIR      -3 -11  68 W8        30.40S WCI -18
JAMESTOWN      CLEAR     -5 -13  68 W5        30.35S WCI -16
$$




USA.gov is the U.S. government's official web portal to all federal, state and local government web resources and services.